Wind_Speed
5 6 7 5 8 5 13 5 7 4 3 2 1 4 4 2 3 5 5 6 7 7 7 10 10 10 12 12 12 9 8 9 10 11 10 10 12 13 13 13 13 13 14 17 18 18 17 17 16
7 7 4 2 5 8 7 9 7 4 2 2 3 2 4 2 3 4 4 4 4 4 5 7 9 9 11 10 10 9 8 9 10 8 8 7 10 10 12 13 15 14 13 14 15 16 15 15 15
5 5 0 7 3 8 10 6 2 0 1 3 3 7 5 3 5 4 5 5 3 3 4 4 5 6 8 8 8 8 9 8 5 5 5 8 8 7 10 11 14 15 14 12 14 14 14 13 13
3 5 4 1 6 11 7 5 2 2 3 4 5 8 5 4 5 2 6 6 6 5 3 3 4 4 4 7 7 8 8 7 8 3 2 5 7 8 9 10 12 14 14 14 12 14 12 11 11
5 9 12 14 6 9 9 9 5 2 2 7 3 4 5 5 7 7 5 8 7 7 5 4 3 4 2 5 6 7 6 8 5 7 8 11 11 8 10 10 11 12 13 13 13 14 11 9 8
7 10 6 8 6 6 7 6 5 4 4 3 2 3 4 4 5 6 3 10 7 8 7 5 4 4 1 3 6 6 6 8 7 4 2 16 14 13 11 12 11 10 11 11 12 12 11 9 8
8 7 4 5 7 8 1 6 9 3 10 1 1 7 6 3 9 12 6 5 5 9 9 8 6 4 2 2 4 4 7 8 5 6 6 17 16 16 13 11 10 9 8 9 9 9 9 8 7
11 4 15 12 12 10 2 9 1 4 7 10 3 8 8 9 13 16 10 12 13 9 11 9 5 3 3 3 2 5 9 11 10 0 5 17 16 15 14 12 10 8 7 8 8 6 6 5 6
13 11 9 7 4 9 6 9 4 6 8 13 7 4 10 9 10 10 12 9 13 12 13 10 6 4 4 3 2 5 7 7 4 5 9 13 15 15 14 12 10 8 6 6 6 4 3 3 3
13 10 9 11 2 7 7 4 11 11 11 11 12 8 4 13 11 13 11 12 13 12 13 11 8 9 7 5 1 5 7 7 5 4 6 10 14 16 14 13 11 6 6 5 5 3 2 2 1
11 9 14 8 6 6 5 9 3 10 14 11 13 7 6 6 8 10 9 14 14 18 17 13 10 13 11 9 5 6 6 6 4 1 5 5 17 16 14 12 10 7 6 5 4 4 2 2 1
14 8 5 3 3 5 7 5 10 11 9 11 11 8 9 5 12 13 12 14 13 17 18 16 14 16 11 8 7 7 6 7 4 4 7 13 17 15 14 12 10 8 7 6 3 2 2 2 2
14 14 6 4 6 7 8 9 9 10 10 12 5 9 8 10 11 15 11 16 18 19 16 15 16 15 14 11 7 2 1 1 10 3 13 14 17 14 14 14 11 8 7 5 3 3 3 2 3
13 10 6 7 7 4 8 6 8 9 11 12 8 9 10 11 12 12 13 16 21 20 21 18 15 12 10 7 4 1 3 8 10 12 11 8 3 16 24 14 10 7 5 4 2 3 2 2 2
7 13 3 2 7 2 3 4 6 7 10 8 8 12 12 10 7 6 11 22 22 21 18 17 15 10 8 5 7 4 5 6 8 6 14 9 11 16 17 14 10 6 5 4 3 2 2 2 2
19 7 11 12 7 8 2 6 7 9 6 7 9 10 6 4 4 6 7 12 22 16 19 15 12 10 7 6 4 3 6 7 6 9 15 12 15 14 11 13 10 7 5 5 5 3 1 2 3
17 12 6 10 1 4 5 6 9 8 5 5 8 6 8 4 2 7 10 14 14 16 15 13 11 10 11 8 6 5 6 6 8 10 6 9 11 12 14 10 10 5 4 4 5 5 4 4 6
2 6 6 4 9 5 3 6 7 10 6 6 9 6 5 4 7 16 15 12 15 13 15 13 14 15 10 9 8 8 7 8 9 10 8 8 8 8 10 8 7 4 3 3 4 5 5 5 6
10 11 9 2 8 6 12 6 6 12 6 5 7 9 5 8 10 12 14 22 16 15 14 13 22 18 13 10 9 9 8 8 9 10 10 10 9 10 9 7 6 5 4 4 5 5 6 6 3
28 19 22 13 8 7 5 7 7 8 9 4 9 10 6 10 14 16 18 16 17 18 16 23 17 14 13 11 11 10 9 10 9 9 9 10 10 8 7 5 3 2 4 4 6 7 7 7 4
20 22 22 7 11 8 5 2 7 7 9 8 10 6 8 9 14 16 16 15 16 16 19 23 15 13 13 11 10 9 10 10 9 8 8 8 7 7 5 4 3 2 2 4 5 6 7 7 6
18 12 6 3 4 4 7 1 3 7 5 8 12 7 10 9 9 14 9 14 20 21 23 20 12 10 10 11 10 10 10 11 11 9 8 5 5 5 4 3 1 3 5 6 5 8 10 8 6
17 11 14 5 13 7 1 7 7 10 7 6 9 10 8 10 11 13 14 14 16 18 15 12 10 9 8 8 8 9 10 9 10 7 6 5 4 2 2 2 4 7 8 9 9 8 7 8 6
3 19 26 1 4 15 17 19 14 17 11 7 5 9 10 9 8 10 13 14 14 12 10 11 12 10 9 8 7 7 8 7 6 5 4 4 1 4 6 7 8 11 12 12 12 13 12 12 11
15 14 22 18 14 10 21 17 17 13 13 11 8 6 5 11 10 9 10 12 12 12 10 10 9 10 10 7 7 7 7 5 4 3 2 2 5 5 8 10 11 11 13 15 16 14 15 15 16
12 17 22 15 12 10 22 19 14 15 12 12 12 10 5 2 7 8 10 9 9 10 9 10 9 8 8 8 7 7 5 3 3 3 4 5 8 10 12 12 14 14 15 13 14 7 11 18 22
17 19 17 23 21 13 3 27 14 7 13 10 12 10 8 3 1 2 4 9 12 11 11 8 8 8 8 7 6 3 1 2 4 7 9 10 12 11 12 13 12 13 15 24 20 24 21 20 22
16 19 14 23 20 6 5 24 18 13 12 9 15 13 8 5 2 5 6 6 8 10 9 8 9 8 7 6 6 3 1 4 7 9 12 14 14 12 13 13 14 18 23 23 26 25 20 21 19
20 22 29 21 22 21 6 9 13 12 11 5 6 14 10 6 5 2 9 9 11 11 16 16 9 5 3 3 4 1 1 6 10 12 12 15 15 15 15 15 16 22 27 29 22 20 18 17 17
18 19 18 19 15 19 12 1 10 11 6 9 12 12 12 11 9 12 9 3 7 19 20 18 16 13 11 7 7 4 6 6 10 13 13 14 15 14 15 17 21 22 19 18 15 16 18 19 18
Wind_Direction
57 46 34 61 36 58 97 89 97 92 73 329 281 319 356 38 97 110 129 122 124 132 123 110 101 91 85 80 77 70 66 60 60 75 113 103 105 97 103 105 105 104 108 109 110 109 106 105 99
41 17 19 88 15 103 81 88 109 101 52 13 27 321 1 321 142 138 147 126 134 138 139 122 109 92 83 79 72 69 61 62 60 70 102 103 106 109 103 108 108 105 105 105 108 108 109 104 99
24 31 83 359 37 72 93 167 296 83 296 302 268 276 305 304 236 176 167 166 169 161 170 146 118 95 82 76 69 64 55 58 63 18 99 112 107 109 117 109 108 108 107 115 110 108 111 111 106
68 31 213 28 78 39 47 65 336 292 275 292 283 281 293 289 241 233 166 204 169 182 175 191 148 108 87 74 60 54 50 53 51 348 242 172 150 138 133 123 115 111 115 116 121 112 104 113 115
313 64 137 115 15 49 39 49 28 23 287 95 302 299 298 280 254 232 177 206 179 191 190 198 161 120 79 67 56 40 31 26 16 339 206 183 152 150 142 138 124 117 116 119 124 120 120 113 112
321 333 309 146 129 1 28 41 12 75 282 80 7 357 341 310 247 214 182 227 216 197 206 206 199 147 130 75 36 28 23 12 1 17 178 173 149 150 146 142 134 130 118 118 126 126 128 129 128
312 57 4 191 158 153 283 24 31 19 319 98 29 311 316 296 274 259 238 228 234 220 209 215 209 165 178 37 17 1 4 8 28 20 150 169 155 156 150 137 133 133 130 134 128 127 133 125 120
324 314 306 306 130 104 147 104 96 321 353 297 344 324 317 299 291 275 267 231 248 234 219 219 213 182 206 290 336 3 0 4 10 46 150 168 164 160 157 148 139 130 129 142 147 142 130 136 115
327 311 312 351 140 88 230 78 146 351 318 273 328 327 298 303 292 296 289 245 233 224 222 208 193 221 213 239 324 18 4 22 51 109 158 166 176 165 157 154 146 142 143 144 149 144 136 114 133
337 308 309 270 18 357 228 70 315 331 309 301 297 325 307 284 282 281 273 251 221 211 210 204 211 226 223 220 261 346 9 28 35 120 187 182 180 168 162 155 140 135 138 128 124 131 140 141 150
324 288 336 205 224 267 266 319 340 342 313 315 309 324 327 259 287 286 244 240 222 209 214 217 218 218 224 238 258 331 349 355 17 69 189 159 158 167 164 155 144 139 126 117 109 104 130 171 219
354 287 237 208 200 356 248 341 340 318 308 322 327 316 318 228 282 275 268 231 216 210 203 201 198 220 212 237 285 290 323 7 101 84 168 155 165 161 159 159 153 141 128 113 85 59 18 333 317
308 286 197 194 205 351 283 324 328 321 331 342 336 293 312 292 282 287 266 224 203 192 198 192 197 198 211 237 293 259 20 14 39 89 147 156 164 178 164 153 144 137 133 121 93 63 43 27 347
352 352 39 249 107 236 289 300 326 328 331 347 330 321 312 305 301 275 263 223 187 192 184 182 188 197 216 236 238 143 55 38 41 81 119 149 208 149 143 129 124 129 116 92 84 93 89 63 17
33 9 285 254 138 296 276 12 339 338 340 336 343 329 319 310 294 265 171 190 172 188 179 180 186 192 211 237 202 110 40 86 77 88 100 47 11 94 129 132 122 103 77 84 96 65 41 50 25
36 356 192 224 179 147 94 350 354 358 341 337 329 343 313 284 260 193 178 171 143 162 174 174 184 192 195 174 159 110 103 91 80 43 62 67 57 69 93 110 112 105 71 52 40 24 20 299 311
56 85 125 253 120 112 62 48 47 34 22 356 353 2 13 69 81 138 159 157 178 156 155 174 181 207 156 165 134 120 112 104 116 85 49 66 74 76 86 87 117 106 83 32 10 359 345 337 328
95 117 121 245 201 148 131 51 52 56 34 23 7 39 47 100 127 111 110 136 147 161 168 172 162 136 145 143 135 121 112 107 101 91 90 82 80 87 88 94 102 102 57 37 20 358 352 346 329
39 233 144 84 152 143 202 89 40 68 49 30 16 51 72 125 120 127 127 145 159 155 158 144 136 144 155 143 126 123 119 116 99 94 92 84 79 80 91 83 55 56 47 26 24 352 344 352 333
33 53 41 91 135 142 118 71 52 55 86 82 48 32 30 133 139 114 120 128 148 156 150 137 131 140 144 136 135 130 119 109 99 95 87 82 78 74 73 80 79 52 7 3 359 346 348 344 335
43 59 57 56 93 75 115 112 16 39 70 98 79 44 68 132 136 136 134 141 168 155 164 141 130 130 133 129 125 120 109 105 101 96 98 75 80 90 74 64 29 25 6 4 347 328 321 337 334
42 87 88 146 76 192 206 339 92 79 37 76 99 75 89 137 143 143 131 133 145 128 127 129 129 130 136 138 136 129 114 107 105 104 98 104 75 74 80 80 29 330 327 332 344 358 345 322 323
6 313 323 1 336 210 286 27 43 76 81 56 75 102 110 106 129 136 131 121 123 133 128 135 142 141 142 152 149 132 123 120 115 107 101 82 62 350 292 291 308 308 309 311 317 329 320 333 320
14 300 333 10 80 122 86 91 50 57 67 68 45 85 106 116 119 130 135 130 130 136 147 153 157 165 166 165 153 138 126 124 125 116 94 89 176 287 326 330 321 317 322 319 315 310 312 311 308
40 338 295 257 155 149 107 89 80 67 65 72 60 30 70 109 143 173 170 157 148 142 163 160 169 175 170 162 156 140 146 157 155 165 173 241 316 324 317 318 312 315 310 303 300 297 306 303 300
38 341 359 169 259 209 127 108 75 15 58 61 59 49 31 69 98 118 141 147 149 145 156 159 161 163 153 147 150 153 166 186 216 259 292 322 333 320 314 312 311 310 307 304 306 359 311 312 300
15 340 357 3 355 213 312 114 106 74 39 69 56 42 40 27 73 73 110 152 160 161 145 144 151 149 150 156 149 139 194 253 290 294 309 325 320 316 316 310 311 305 296 309 297 321 328 335 335
343 321 343 347 347 93 313 130 126 99 98 47 44 44 29 39 2 253 223 225 206 193 180 187 172 167 176 157 138 131 330 311 294 299 312 308 308 304 301 303 304 297 306 334 310 323 318 332 345
326 335 335 356 349 5 24 93 130 95 93 118 37 20 28 351 343 251 238 241 233 228 229 228 216 211 245 165 138 88 300 288 287 293 297 297 299 300 305 310 307 310 322 310 338 329 334 335 340
316 335 344 345 344 336 354 349 72 93 65 73 36 349 345 352 348 6 298 225 239 243 233 232 235 240 247 242 252 241 272 263 287 294 294 294 299 301 308 314 311 307 321 334 330 332 329 327 328
Height
5905 5905 5905 5900 5905 5902 5903 5905 5905 5905 5904 5905 5906 5906 5907 5908 5911 5914 5913 5912 5913 5914 5915 5916 5917 5917 5918 5917 5918 5918 5916 5915 5914 5914 5914 5914 5914 5915 5914 5914 5913 5913 5913 5912 5912 5912 5913 5913 5913
5906 5906 5906 5904 5902 5901 5904 5906 5906 5905 5904 5905 5907 5906 5907 5907 5910 5913 5914 5914 5915 5916 5917 5917 5918 5919 5919 5919 5920 5919 5918 5917 5917 5916 5916 5917 5917 5917 5917 5916 5916 5915 5916 5916 5915 5915 5916 5916 5916
5905 5906 5907 5899 5902 5902 5903 5905 5904 5905 5905 5905 5907 5906 5907 5908 5908 5912 5915 5914 5915 5916 5918 5918 5919 5920 5920 5920 5920 5920 5920 5919 5918 5918 5918 5918 5918 5919 5919 5919 5918 5918 5918 5918 5918 5918 5918 5918 5918
5904 5907 5909 5903 5904 5903 5902 5906 5904 5904 5904 5905 5906 5906 5907 5906 5907 5911 5916 5914 5917 5917 5918 5919 5920 5921 5921 5921 5921 5921 5920 5918 5920 5918 5918 5919 5920 5920 5921 5921 5921 5920 5920 5920 5920 5919 5920 5921 5921
5908 5890 5905 5905 5909 5905 5903 5904 5904 5904 5903 5906 5904 5905 5905 5905 5906 5909 5914 5915 5916 5917 5918 5919 5920 5921 5922 5922 5921 5921 5919 5918 5918 5915 5915 5917 5919 5921 5922 5922 5922 5922 5922 5921 5921 5921 5921 5922 5923
5906 5903 5903 5905 5907 5906 5905 5904 5904 5904 5902 5906 5906 5906 5905 5904 5904 5907 5913 5913 5915 5916 5918 5919 5921 5922 5922 5921 5920 5919 5918 5916 5914 5913 5913 5916 5918 5921 5923 5923 5923 5924 5924 5924 5923 5923 5923 5923 5924
5904 5896 5904 5903 5901 5902 5904 5904 5905 5906 5904 5904 5905 5903 5904 5904 5904 5906 5912 5912 5913 5915 5917 5918 5920 5922 5922 5921 5919 5918 5917 5915 5914 5915 5914 5915 5917 5920 5923 5925 5924 5925 5926 5926 5925 5925 5925 5925 5925
5903 5904 5904 5889 5896 5899 5902 5902 5905 5904 5904 5901 5904 5903 5901 5904 5903 5902 5908 5913 5912 5915 5916 5918 5920 5922 5921 5921 5919 5919 5917 5915 5914 5916 5916 5918 5918 5920 5922 5924 5926 5926 5927 5927 5927 5927 5928 5928 5928
5901 5901 5900 5902 5902 5901 5901 5899 5902 5904 5902 5900 5903 5903 5900 5901 5902 5902 5901 5909 5910 5913 5915 5918 5920 5921 5921 5920 5920 5920 5918 5915 5915 5917 5917 5918 5920 5921 5923 5923 5924 5926 5927 5927 5928 5928 5929 5929 5929
5900 5900 5900 5902 5905 5903 5896 5900 5903 5903 5900 5898 5898 5902 5904 5900 5899 5899 5900 5903 5907 5912 5914 5917 5920 5920 5921 5921 5920 5920 5919 5919 5917 5919 5918 5917 5919 5922 5923 5924 5924 5926 5927 5928 5928 5929 5929 5930 5930
5900 5900 5900 5896 5902 5904 5900 5900 5897 5899 5899 5898 5895 5897 5899 5897 5896 5896 5898 5899 5902 5907 5911 5915 5918 5919 5921 5922 5920 5922 5921 5920 5920 5919 5919 5918 5918 5921 5922 5924 5924 5926 5927 5929 5929 5929 5929 5929 5930
5901 5897 5899 5899 5898 5901 5892 5895 5895 5898 5900 5897 5896 5895 5895 5897 5894 5894 5895 5897 5900 5903 5906 5912 5917 5918 5922 5920 5920 5922 5922 5922 5920 5919 5918 5917 5919 5921 5922 5923 5925 5926 5927 5928 5929 5929 5929 5929 5929
5899 5895 5900 5899 5899 5896 5898 5897 5897 5897 5897 5896 5896 5893 5894 5891 5892 5890 5894 5893 5895 5899 5904 5910 5913 5918 5922 5920 5919 5922 5923 5923 5919 5919 5918 5918 5917 5918 5921 5923 5925 5927 5928 5928 5928 5929 5929 5929 5929
5896 5899 5897 5896 5896 5899 5900 5898 5899 5897 5895 5895 5893 5892 5890 5889 5889 5887 5888 5890 5896 5899 5904 5908 5910 5916 5919 5919 5920 5922 5924 5925 5924 5921 5920 5919 5913 5907 5921 5924 5927 5928 5929 5929 5929 5929 5929 5929 5930
5895 5895 5896 5893 5895 5898 5900 5899 5898 5897 5895 5893 5891 5890 5888 5888 5885 5887 5886 5887 5893 5898 5905 5908 5910 5916 5919 5919 5920 5922 5923 5925 5926 5921 5918 5921 5920 5920 5925 5927 5929 5930 5931 5931 5930 5929 5929 5930 5930
5892 5890 5894 5897 5897 5897 5899 5898 5898 5896 5895 5893 5892 5892 5888 5887 5885 5887 5886 5876 5892 5902 5903 5910 5913 5917 5919 5919 5920 5921 5923 5923 5923 5923 5923 5924 5926 5925 5928 5930 5929 5930 5931 5931 5930 5930 5930 5930 5929
5890 5888 5891 5896 5895 5898 5900 5899 5899 5898 5895 5893 5892 5890 5888 5888 5889 5888 5890 5891 5883 5899 5905 5910 5914 5917 5919 5920 5921 5922 5922 5925 5927 5926 5919 5926 5927 5928 5929 5930 5930 5931 5931 5930 5930 5929 5928 5928 5927
5885 5889 5891 5890 5896 5898 5897 5899 5899 5898 5896 5893 5891 5891 5889 5890 5890 5893 5893 5896 5898 5903 5907 5910 5915 5918 5920 5922 5922 5922 5923 5924 5926 5925 5927 5927 5928 5930 5928 5930 5930 5931 5931 5930 5929 5929 5928 5927 5927
5889 5885 5888 5893 5897 5897 5891 5896 5898 5899 5898 5895 5892 5892 5890 5891 5892 5895 5896 5897 5902 5906 5910 5912 5916 5920 5920 5922 5923 5925 5925 5926 5925 5927 5930 5931 5931 5929 5929 5930 5931 5930 5930 5929 5929 5929 5927 5926 5925
5889 5883 5886 5893 5898 5897 5895 5897 5898 5898 5900 5898 5893 5893 5892 5892 5895 5896 5900 5903 5905 5908 5911 5915 5918 5920 5920 5921 5923 5925 5927 5927 5929 5930 5929 5929 5929 5928 5928 5930 5930 5929 5929 5929 5928 5927 5927 5925 5923
5890 5890 5890 5899 5896 5893 5893 5897 5900 5899 5899 5899 5895 5897 5894 5894 5896 5898 5901 5903 5907 5909 5912 5915 5918 5920 5921 5922 5923 5926 5927 5928 5929 5929 5929 5928 5928 5928 5929 5929 5929 5929 5928 5928 5927 5926 5925 5924 5924
5895 5895 5892 5899 5900 5898 5898 5899 5898 5897 5899 5901 5898 5897 5897 5898 5899 5901 5903 5906 5910 5911 5911 5916 5919 5921 5922 5924 5926 5928 5928 5930 5930 5930 5930 5930 5928 5927 5928 5927 5928 5927 5927 5926 5925 5923 5922 5922 5921
5889 5895 5894 5896 5896 5900 5904 5905 5902 5899 5899 5900 5901 5900 5900 5901 5902 5903 5904 5906 5908 5911 5915 5917 5919 5921 5923 5926 5929 5931 5932 5932 5932 5931 5930 5930 5928 5927 5927 5927 5927 5926 5926 5924 5923 5922 5921 5919 5918
5899 5898 5894 5900 5902 5900 5900 5903 5904 5900 5900 5900 5901 5902 5903 5901 5904 5905 5907 5910 5912 5914 5916 5918 5919 5922 5925 5927 5930 5932 5933 5931 5930 5930 5929 5928 5928 5926 5927 5927 5927 5926 5925 5924 5921 5920 5919 5918 5917
5899 5903 5899 5899 5899 5899 5897 5899 5899 5906 5902 5901 5901 5900 5902 5903 5906 5908 5910 5912 5914 5915 5917 5919 5921 5924 5926 5928 5930 5931 5930 5930 5929 5929 5928 5928 5928 5928 5927 5926 5925 5925 5924 5920 5918 5916 5915 5914 5913
5904 5903 5897 5897 5898 5899 5895 5896 5899 5905 5902 5903 5902 5901 5901 5903 5905 5908 5909 5911 5913 5916 5917 5920 5922 5924 5925 5927 5928 5928 5928 5929 5929 5928 5928 5928 5927 5927 5926 5926 5924 5921 5919 5916 5913 5909 5909 5908 5908
5903 5902 5902 5900 5894 5893 5880 5894 5902 5905 5904 5905 5904 5903 5903 5902 5903 5904 5907 5911 5915 5918 5918 5920 5922 5923 5924 5925 5926 5927 5927 5927 5927 5927 5927 5928 5926 5925 5924 5923 5921 5920 5919 5919 5914 5909 5909 5905 5902
5905 5904 5904 5903 5900 5899 5895 5898 5901 5902 5900 5903 5904 5904 5904 5904 5903 5904 5905 5907 5910 5914 5916 5916 5918 5921 5923 5923 5923 5925 5926 5927 5925 5924 5924 5923 5924 5924 5922 5921 5919 5916 5914 5908 5909 5907 5906 5904 5898
5908 5907 5904 5904 5905 5905 5899 5901 5903 5906 5904 5903 5903 5905 5906 5906 5904 5905 5905 5907 5910 5912 5911 5913 5918 5922 5924 5925 5924 5924 5923 5924 5924 5922 5921 5920 5920 5918 5917 5917 5915 5914 5913 5909 5904 5905 5903 5902 5896
5909 5909 5909 5906 5907 5909 5906 5905 5906 5909 5910 5907 5904 5903 5903 5905 5905 5906 5905 5905 5907 5907 5907 5912 5917 5918 5919 5921 5925 5922 5922 5920 5922 5921 5919 5918 5916 5916 5916 5914 5912 5912 5909 5907 5905 5903 5901 5898 5895